User: anonymous   Login
Location: Prairie State College
(41.5244°N, 87.6382°W)
Time: 06:58:32
(UTC-05:00)
Language:

ARGOS Delta rocket - Orbit

View from above orbital plane
View from above orbital plane
View from above satellite
View from above satellite

Ground track
Ground track

The orbit data is extracted from the following two-line orbital elements,

1 25637U 99008D   15180.79073818  .00000109  00000-0  34334-4 0  9998
2 25637 096.4714 239.1726 0144345 047.0475 061.0804 14.46293476861767
Epoch (UTC): 29 June 2015 18:58:39
Eccentricity: 0.0144345
inclination: 96.4714°
perigee height: 635 km
apogee height: 840 km
right ascension of ascending node: 239.1726°
argument of perigee: 47.0475°
revolutions per day: 14.46293476
mean anomaly at epoch: 61.0804°
orbit number at epoch: 86176

The dashed part of the orbit path shows where the satellite is in the earth's shadow,  

DLR